White Mountain Summit Weather observations

Data are for 10 minute period ending at time listed.
 Day   Time   Solar   Ave.   Ave.  Ave.  Vector    Max.    Baro.  
  of    of     Rad.   Air    Rel.  Wind   Wind     Wind   Press.  
Year   Day            Temp.  Hum.  Speed  Dir.     Gust           
2016   (PST)   W/m2    F      %     mph   deg.      mph     mb.   
-------------------------------------------------------------------
 344   19:00    0.0    17   54.7     0      0.0     0.0   598.3 
 344   19:10    0.0    17   54.0     0      0.0     0.0   598.4 
 344   19:20    0.0    17   56.0     0      0.0     0.0   598.2 
 344   19:30    1.0    18   57.2     0      0.0     0.0   598.4 
 344   19:40    0.0    18   58.9     0      0.0     0.0   598.6 
 344   19:50    0.0    17   58.5     0      0.0     0.0   598.7 
 344   20:00    0.0    16   58.3     0      0.0     0.0   598.7 
 344   20:10    0.0    17   60.8     0      0.0     0.0   598.4 
 344   20:20    0.0    18   60.5     0      0.0     0.0   598.6 
 344   20:30    0.0    17   62.7     0      0.0     0.0   598.6 
 344   20:40    0.0    16   64.9     0      0.0     0.0   598.7 
 344   20:50    0.0    17   63.2     0      0.0     0.0   598.5 
 344   21:00    0.0    17   62.9     0      0.0     0.0   598.2 
 344   21:10    0.0    17   63.3     0      0.0     0.0   598.2 
 344   21:20    0.0    17   64.7     0      0.0     0.0   598.0 
 344   21:30    0.0    16   64.2     0      0.0     0.0   597.9 
 344   21:40    0.0    16   67.5     0      0.0     0.0   597.9 
 344   21:50    0.0    16   70.8     0      0.0     0.0   597.7 
 344   22:00    0.0    15   73.8     0      0.0     0.0   597.5 
 344   22:10    0.0    16   73.6     0      0.0     0.0   597.3 
 344   22:20    0.0    15   77.8     0      0.0     0.0   597.3 
 344   22:30    0.0    15   82.4     0      0.0     0.0   597.5 
 344   22:40    0.0    16   86.9     0      0.0     0.0   596.8 
 344   22:50    0.0    17   89.0     0      0.0     0.0   596.7 
 344   23:00    0.0    17   88.9     0      0.0     0.0   597.1 
 344   23:10    0.0    17   89.0     0      0.0     0.0   597.1 
 344   23:20    0.0    18   89.3     0      0.0     0.0   597.2 
 344   23:30    0.0    18   89.2     0      0.0     0.0   596.7 
 344   23:40    0.0    18   89.3     0      0.0     0.0   596.5 
 344   23:50    0.0    18   89.5     0      0.0     0.0   595.9 
 345    0:00    0.0    19   89.6     0      0.0     0.0   595.6 
 345    0:10    0.0    19   89.6     0      0.0     0.0   595.4 
 345    0:20    0.0    19   89.8     0      0.0     0.0   595.2 
 345    0:30    0.0    19   89.8     0      0.0     0.0   596.1 
 345    0:40    0.0    19   89.6     0      0.0     0.0   596.2 
 345    0:50    0.0    18   89.6     0      0.0     0.0   596.3 
 345    1:00    0.0    18   89.6     0      0.0     0.0   595.8 
 345    1:10    0.0    19   89.8     0      0.0     0.0   595.4 
 345    1:20    0.0    19   89.9     0      0.0     0.0   595.3 
 345    1:30    0.0    19   89.9     0      0.0     0.0   595.7 
 345    1:40    0.0    19   89.9     0      0.0     0.0   596.1 
 345    1:50    0.0    18   89.9     0      0.0     0.0   595.8 
 345    2:00    0.0    18   89.9     0      0.0     0.0   595.2 
 345    2:10    0.0    18   89.9     0      0.0     0.0   595.2 
 345    2:20    0.0    19   89.9     0      0.0     0.0   595.2 
 345    2:30    0.0    19   90.1     0      0.0     0.0   595.5 
 345    2:40    0.0    19   90.1     0      0.0     0.0   595.5 
 345    2:50    0.0    19   90.2     0      0.0     0.0   595.1 
 345    3:00    0.0    19   90.3     0      0.0     0.0   594.6 
 345    3:10    0.0    20   90.3     0      0.0     0.0   595.0 
 345    3:20    0.0    20   90.4     0      0.0     0.0   594.8 
 345    3:30    0.0    20   90.4     0      0.0     0.0   594.9 
 345    3:40    0.0    20   90.3     0      0.0     0.0   595.0 
 345    3:50    0.0    19   90.3     0      0.0     0.0   594.9 
 345    4:00    0.0    19   90.4     0      0.0     0.0   594.6 
 345    4:10    0.0    20   90.4     0      0.0     0.0   594.2 
 345    4:20    0.0    20   90.4     0      0.0     0.0   594.6 
 345    4:30    0.0    19   90.4     0      0.0     0.0   594.5 
 345    4:40    0.0    19   90.3     0      0.0     0.0   594.6 
 345    4:50    0.0    19   90.3     0      0.0     0.0   594.3 
 345    5:00    0.0    19   90.3     0      0.0     0.0   594.2 
 345    5:10    0.0    19   90.3     0      0.0     0.0   594.4 
 345    5:20    0.0    19   90.3     0      0.0     0.0   594.8 
 345    5:30    0.0    19   90.3     0      0.0     0.0   594.6 
 345    5:40    0.0    19   90.3     0      0.0     0.0   594.6 
 345    5:50    0.0    19   90.3     0      0.0     0.0   594.5 
 345    6:00    0.0    19   90.3     0      0.0     0.0   594.7 
 345    6:10    0.0    19   90.3     8    292.4    61.2   594.8 
 345    6:20    1.0    19   90.3    51    292.4    68.2   594.7 
 345    6:30    0.0    19   90.4    61    292.4    70.6   594.1 
 345    6:40    1.0    19   90.4    57    292.4    68.2   594.2 
 345    6:50    1.0    19   90.4    38    292.4    51.8   594.9 
 345    7:00    0.0    19   90.4    37    292.4    37.7   594.8 
 345    7:10    0.0    19   90.4    36    292.4    37.7   594.9 
 345    7:20    0.0    19   90.3    36    292.4    37.7   594.4 
 345    7:30    0.0    18   90.1    35    292.4    37.7   594.6 
 345    7:40    0.0    18   90.1    35    292.4    37.7   594.4 
 345    7:50    0.0    18   90.1    35    292.4    37.7   594.2 
 345    8:00    0.0    18   90.0    34    292.4    35.3   594.4 
 345    8:10    0.0    18   89.7    33    292.4    35.3   594.8 
 345    8:20    1.0    17   89.7    34    292.4    35.3   594.5 
 345    8:30    0.0    17   89.7    34    292.4    35.3   593.8 
 345    8:40    0.0    18   89.9    34    292.4    35.3   594.1 
 345    8:50    1.0    18   89.8    33    292.4    35.3   594.8 
 345    9:00    0.0    18   89.9    34    292.4    35.3   594.6 
 345    9:10    1.0    18   90.0    33    292.4    35.3   594.7 
 345    9:20    0.0    18   90.2    34    292.4    35.3   593.9 
 345    9:30    0.0    19   90.2    33    292.4    35.3   594.3 
 345    9:40    1.0    19   90.3    34    292.4    37.7   593.5 
 345    9:50    1.0    19   90.3    35    292.4    37.7   593.9 
 345   10:00    0.0    20   90.4    35    292.4    37.7   594.0 
 345   10:10    1.0    20   90.4    34    292.4    35.3   594.0 
 345   10:20    1.0    20   90.4    34    292.4    37.7   594.2 
 345   10:30    1.0    20   90.4    34    292.4    35.3   594.1 
 345   10:40    0.0    19   90.4    33    292.4    35.3   594.1 
 345   10:50    1.0    19   90.5    33    292.4    35.3   593.5 
 345   11:00    0.0    19   90.5    33    292.4    35.3   592.8 
 345   11:10    0.0    19   90.5    33    292.4    35.3   592.6 
 345   11:20    1.0    19   90.5    33    292.4    35.3   592.3 
 345   11:30    0.0    19   90.5    32    292.4    33.0   592.7 
 345   11:40    0.0    19   90.4    32    292.4    33.0   592.6 
 345   11:50    0.0    20   90.5    32    292.4    35.3   592.5 
 345   12:00    0.0    20   90.4    33    292.4    35.3   592.9 
 345   12:10    1.0    20   90.5    33    292.4    35.3   593.3 
 345   12:20    0.0    20   90.7    32    292.4    33.0   593.6 
 345   12:30    0.0    20   90.8    31    292.4    33.0   593.2 
 345   12:40    0.0    20   90.9    31    292.4    33.0   593.5 
 345   12:50    0.0    20   90.9    30    292.4    33.0   593.5 
 345   13:00    0.0    20   91.0    28    292.4    33.0   593.3 
 345   13:10    0.0    21   91.0    20    292.4    21.2   593.6 
 345   13:20    0.0    21   91.0    19    292.4    21.2   593.8 
 345   13:30    0.0    21   91.1    19    292.4    21.2   593.3 
 345   13:40    0.0    21   91.3    18    292.4    21.2   593.5 
 345   13:50    0.0    21   91.2    18    292.4    21.2   594.3 
 345   14:00    1.0    21   91.2    14    292.4    18.8   594.4 
 345   14:10    1.0    22   91.3    11    292.4    18.8   594.9 
 345   14:20    0.0    22   91.3     7    292.4    11.8   595.3 
 345   14:30    1.0    22   91.4    10    292.4    16.5   595.0 
 345   14:40    1.0    22   91.3    13    292.4    16.5   594.5 
 345   14:50    1.0    22   91.3    12    292.4    16.5   594.4 
 345   15:00    0.0    21   91.3    11    292.4    16.5   594.3 
 345   15:10    1.0    21   91.2    13    292.4    18.8   594.3 
 345   15:20    0.0    21   91.3    16    292.4    18.8   594.1 
 345   15:30    0.0    21   91.3    14    292.4    16.5   594.5 
 345   15:40    0.0    21   91.2    14    292.4    16.5   594.3 
 345   15:50    0.0    21   91.3    13    292.4    18.8   594.4 
 345   16:00    0.0    21   91.3    12    292.4    14.1   594.2 
 345   16:10    0.0    21   91.3    12    292.4    18.8   595.0 
 345   16:20    0.0    21   91.2    14    292.4    18.8   595.7 
 345   16:30    0.0    21   91.2    15    292.4    21.2   595.6 
 345   16:40    0.0    21   91.2    16    292.4    21.2   594.7 
 345   16:50    0.0    20   91.2    18    292.4    21.2   594.3 
 345   17:00    0.0    20   91.2    16    292.4    21.2   594.8 
 345   17:10    0.0    20   91.2    15    292.4    18.8   595.2 
 345   17:20    0.0    20   91.2    13    292.4    18.8   595.4 
 345   17:30    0.0    20   91.2    17    292.4    21.2   594.7 
 345   17:40    0.0    20   91.2    18    292.4    21.2   595.1 
 345   17:50    0.0    20   91.2    18    292.4    21.2   595.3 
 345   18:00    0.0    20   91.1    18    292.4    21.2   595.3 
 345   18:10    0.0    20   91.2    18    292.4    21.2   595.1 
 345   18:20    0.0    20   91.2    16    292.4    18.8   595.3 
 345   18:30    0.0    20   91.2    18    292.4    21.2   594.9 
 345   18:40    0.0    20   91.2    18    292.4    23.5   594.6 
 345   18:50    0.0    20   91.2    20    292.4    25.9   594.2 

Return to White Mountain graphs page.


Western Regional Climate Center,wrcc@dri.edu